Greenwood, SC

1:59 AM EST on February 25, 2018 (GMT -0500)
Greenwood County

Weather History for KGRD - November, 2013

Change the Weather History Date:

Friday, November 22, 2013

  Actual Average (KAND) Record (KAND)
Temperature  
Mean Temperature 57 °F -  
Max Temperature 63 °F 60 °F 78 °F (1958)
Min Temperature 51 °F 37 °F 17 °F (2008)
Degree Days  
Heating Degree Days 8    
Growing Degree Days 7 (Base 50)    
Moisture  
Dew Point 54 °F    
Average Humidity 90    
Maximum Humidity 94    
Minimum Humidity 84    
Precipitation  
Precipitation 0.02 in - - ()
Sea Level Pressure  
Sea Level Pressure 30.29 in    
Wind  
Wind Speed 4 mph (WNW)    
Max Wind Speed 7 mph    
Max Gust Speed -    
Visibility 6 miles    
Events Rain    
Averages and records for this station are not official NWS values.
T = Trace of Precipitation, MM = Missing Value Source: NWS Daily Summary

Daily Weather History Graph

Daily Weather History Graph

Search for Another Location

Airport or City:

Trip Planner

Search our weather history database for the weather conditions in past years. The results will help you decide how hot, cold, wet, or windy it might be!

Date:

Astronomy

Nov. 22, 2013 Rise Set
Actual Time 7:08 AM EST 5:20 PM EST
Civil Twilight 6:41 AM EST 5:48 PM EST
Nautical Twilight 6:10 AM EST 6:18 PM EST
Astronomical Twilight 5:40 AM EST 6:48 PM EST
Moon 9:48 PM EST (11/22) 10:53 AM EST (11/22)
Length of Visible Light 11h 06m
Length of Day
10h 12m
Waning Gibbous, 78% of the Moon is Illuminated
Nov 22
Waning Gibbous
Nov 25
Last Quarter
Dec 2
New
Dec 9
First Quarter
Dec 17
Full

Hourly Weather History & Observations

Time (EST) Temp. Dew Point Humidity Pressure Visibility Wind Dir Wind Speed Gust Speed Precip Events Conditions
12:41 AM 51.8 °F 48.2 °F 88% 30.38 in 8.0 mi NNE 5.8 mph - N/A   Overcast
12:56 AM 51.1 °F 48.0 °F 89% 30.37 in 8.0 mi North 3.5 mph - N/A   Overcast
1:56 AM 51.1 °F 48.0 °F 89% 30.37 in 8.0 mi NNW 5.8 mph - N/A   Overcast
2:56 AM 51.1 °F 48.9 °F 92% 30.37 in 8.0 mi North 3.5 mph - N/A   Overcast
3:56 AM 52.0 °F 48.9 °F 89% 30.36 in 7.0 mi North 5.8 mph - N/A   Overcast
4:43 AM 51.8 °F 50.0 °F 94% 30.36 in 8.0 mi NNE 4.6 mph - N/A   Overcast
4:56 AM 52.0 °F 48.9 °F 89% 30.35 in 8.0 mi North 3.5 mph - N/A   Overcast
5:56 AM 52.0 °F 48.9 °F 89% 30.35 in 7.0 mi North 4.6 mph - N/A   Overcast
6:56 AM 52.0 °F 48.9 °F 89% 30.35 in 8.0 mi North 4.6 mph - N/A   Overcast
7:56 AM 52.0 °F 48.9 °F 89% 30.35 in 6.0 mi North 4.6 mph - N/A   Overcast
8:17 AM 51.8 °F 50.0 °F 94% 30.35 in 2.5 mi North 3.5 mph - N/A   Overcast
8:32 AM 53.6 °F 51.8 °F 94% 30.35 in 1.5 mi North 4.6 mph - N/A   Overcast
8:56 AM 53.1 °F 51.1 °F 93% 30.35 in 1.8 mi Calm Calm - N/A   Overcast
9:37 AM 53.6 °F 51.8 °F 94% 30.35 in 2.5 mi Calm Calm - 0.01 in   Overcast
9:48 AM 53.6 °F 51.8 °F 94% 30.35 in 3.0 mi Calm Calm - 0.01 in   Overcast
9:56 AM 54.0 °F 52.0 °F 93% 30.35 in 3.0 mi North 3.5 mph - 0.01 in   Overcast
10:07 AM 55.4 °F 51.8 °F 88% 30.35 in 1.8 mi Calm Calm - N/A   Overcast
10:21 AM 55.4 °F 53.6 °F 94% 30.35 in 2.0 mi Calm Calm - N/A   Overcast
10:56 AM 55.0 °F 53.1 °F 93% 30.34 in 1.8 mi Calm Calm - N/A   Overcast
11:05 AM 55.4 °F 53.6 °F 94% 30.33 in 2.5 mi Calm Calm - N/A   Overcast
11:14 AM 55.4 °F 53.6 °F 94% 30.33 in 4.0 mi Calm Calm - N/A   Overcast
11:42 AM 57.2 °F 53.6 °F 88% 30.32 in 5.0 mi Calm Calm - N/A   Overcast
11:56 AM 59.0 °F 55.0 °F 87% 30.31 in 5.0 mi Calm Calm - N/A   Overcast
12:33 PM 59.0 °F 55.4 °F 88% 30.30 in 2.0 mi Calm Calm - N/A   Overcast
12:44 PM 60.8 °F 57.2 °F 88% 30.30 in 5.0 mi West 3.5 mph - N/A   Overcast
12:56 PM 60.1 °F 55.9 °F 86% 30.29 in 7.0 mi West 4.6 mph - N/A   Overcast
1:56 PM 61.0 °F 57.0 °F 87% 30.27 in 6.0 mi Calm Calm - 0.00 in   Overcast
2:56 PM 62.1 °F 57.9 °F 86% 30.24 in 9.0 mi WSW 3.5 mph - N/A   Overcast
3:56 PM 63.0 °F 57.9 °F 84% 30.24 in 10.0 mi WSW 5.8 mph - N/A   Overcast
4:56 PM 62.1 °F 57.9 °F 86% 30.22 in 10.0 mi SSW 4.6 mph - N/A   Overcast
5:56 PM 61.0 °F 57.9 °F 90% 30.22 in 10.0 mi WSW 6.9 mph - N/A   Overcast
6:56 PM 61.0 °F 57.9 °F 90% 30.22 in 9.0 mi SW 4.6 mph - N/A   Overcast
7:42 PM 60.8 °F 57.2 °F 88% 30.21 in 8.0 mi SSW 3.5 mph - N/A   Mostly Cloudy
7:56 PM 59.0 °F 57.0 °F 93% 30.19 in 7.0 mi South 5.8 mph - N/A   Overcast
8:56 PM 60.1 °F 57.9 °F 93% 30.19 in 7.0 mi Calm Calm - N/A   Overcast
9:56 PM 59.0 °F 57.0 °F 93% 30.17 in 5.0 mi Calm Calm - N/A   Overcast
10:56 PM 60.1 °F 57.9 °F 93% 30.17 in 4.0 mi WSW 3.5 mph - 0.00 in Rain Light Rain
11:22 PM 60.8 °F 57.2 °F 88% 30.17 in 5.0 mi SW 6.9 mph - 0.00 in Rain Light Rain
11:29 PM 60.8 °F 57.2 °F 88% 30.17 in 5.0 mi SW 5.8 mph - 0.00 in Rain Light Rain
11:56 PM 60.1 °F 57.9 °F 93% 30.16 in 3.0 mi SW 6.9 mph - 0.01 in Rain Light Rain